OpenBCM V1.13 (Linux)

Packet Radio Mailbox

DB0FHN

[JN59NK Nuernberg]

 Login: GUEST





  
CX2SA  > KEPS     29.10.04 06:23l 277 Lines 7263 Bytes #999 (0) @ AMSAT
BID : ORB04302.D
Read: GUEST
Subj: Orbital Elements  04302.MICROS
Path: DB0FHN<DB0MRW<DB0WUE<DK0WUE<DB0RES<ON0AR<TU5EX<CX2SA
Sent: 041029/0416Z @:CX2SA.LAV.URY.SA #:32067 [Minas] FBB7.00e $:ORB04302.D
From: CX2SA@CX2SA.LAV.URY.SA
To  : KEPS@AMSAT


HR AMSAT ORBITAL ELEMENTS FOR THE MICROSATS
FROM WA5QGD FORT WORTH,TX October 28, 2004
SEND SUBSCRIBE/UNSUBSCRIBE TO majordomo@amsat.org ONLY
BID: ORB04302.D
TO ALL RADIO AMATEURS BT

Satellite: UO-14
Catalog number: 20437
Epoch time:      04302.60766717
Element set:     626
Inclination:       98.2042 deg
RA of node:       319.2107 deg
Eccentricity:    0.0011019
Arg of perigee:   158.8470 deg
Mean anomaly:     201.3168 deg
Mean motion:   14.31377244 rev/day
Decay rate:        6.3e-07 rev/day^2
Epoch rev:           77090
Checksum:              277

Satellite: AO-16
Catalog number: 20439
Epoch time:      04302.58466867
Element set:     313
Inclination:       98.2342 deg
RA of node:       333.9748 deg
Eccentricity:    0.0011025
Arg of perigee:   167.0049 deg
Mean anomaly:     193.1421 deg
Mean motion:   14.31635839 rev/day
Decay rate:        8.4e-07 rev/day^2
Epoch rev:           77095
Checksum:              307

Satellite: WO-18
Catalog number: 20441
Epoch time:      04302.32183771
Element set:     503
Inclination:       98.2469 deg
RA of node:       337.8340 deg
Eccentricity:    0.0011648
Arg of perigee:   167.6661 deg
Mean anomaly:     192.4818 deg
Mean motion:   14.31710426 rev/day
Decay rate:        4.3e-07 rev/day^2
Epoch rev:           77097
Checksum:              298

Satellite: LO-19
Catalog number: 20442
Epoch time:      04301.66889288
Element set:    0245
Inclination:      098.2600 deg
RA of node:       341.3540 deg
Eccentricity:    0.0011625
Arg of perigee:   169.6609 deg
Mean anomaly:     190.4816 deg
Mean motion:   14.31882126 rev/day
Decay rate:        5.6e-07 rev/day^2
Epoch rev:           77094
Checksum:              307

Satellite: UO-22
Catalog number: 21575
Epoch time:      04302.80168388
Element set:     240
Inclination:       98.2111 deg
RA of node:       271.2986 deg
Eccentricity:    0.0008419
Arg of perigee:    71.2287 deg
Mean anomaly:     288.9809 deg
Mean motion:   14.39425632 rev/day
Decay rate:       2.15e-06 rev/day^2
Epoch rev:           69721
Checksum:              313

Satellite: KO-23
Catalog number: 22077
Epoch time:      04301.92502978
Element set:    0388
Inclination:      066.0849 deg
RA of node:       272.8665 deg
Eccentricity:    0.0010967
Arg of perigee:   309.7950 deg
Mean anomaly:     050.2102 deg
Mean motion:   12.86426622 rev/day
Decay rate:       -3.7e-07 rev/day^2
Epoch rev:           57371
Checksum:              311

Satellite: AO-27
Catalog number: 22825
Epoch time:      04302.03047925
Element set:     973
Inclination:       98.2463 deg
RA of node:       303.9564 deg
Eccentricity:    0.0007841
Arg of perigee:   224.2358 deg
Mean anomaly:     135.8205 deg
Mean motion:   14.29092309 rev/day
Decay rate:       1.94e-06 rev/day^2
Epoch rev:           57806
Checksum:              307

Satellite: IO-26
Catalog number: 22826
Epoch time:      04301.96090944
Element set:    0656
Inclination:      098.2442 deg
RA of node:       305.1760 deg
Eccentricity:    0.0008032
Arg of perigee:   227.9801 deg
Mean anomaly:     132.0704 deg
Mean motion:   14.29328861 rev/day
Decay rate:        9.4e-07 rev/day^2
Epoch rev:           57811
Checksum:              294

Satellite: KO-25
Catalog number: 22828
Epoch time:      04302.07936580
Element set:     908
Inclination:       98.2359 deg
RA of node:       305.5199 deg
Eccentricity:    0.0009609
Arg of perigee:   201.3957 deg
Mean anomaly:     158.6825 deg
Mean motion:   14.29648103 rev/day
Decay rate:       1.00e-06 rev/day^2
Epoch rev:           54635
Checksum:              319

Satellite: TO-31
Catalog number: 25396
Epoch time:      04301.91891610
Element set:    0109
Inclination:      098.5627 deg
RA of node:       009.7945 deg
Eccentricity:    0.0003655
Arg of perigee:   126.7023 deg
Mean anomaly:     233.4493 deg
Mean motion:   14.23638396 rev/day
Decay rate:       -4.3e-07 rev/day^2
Epoch rev:           32736
Checksum:              306

Satellite: GO-32
Catalog number: 25397
Epoch time:      04302.18851354
Element set:     590
Inclination:       98.5548 deg
RA of node:         8.0032 deg
Eccentricity:    0.0002288
Arg of perigee:   126.2365 deg
Mean anomaly:     233.8943 deg
Mean motion:   14.23054385 rev/day
Decay rate:      -2.86e-06 rev/day^2
Epoch rev:           32733
Checksum:              298

Satellite: UO-36
Catalog number: 25693
Epoch time:      04302.53199942
Element set:     589
Inclination:       64.5566 deg
RA of node:       275.0951 deg
Eccentricity:    0.0044497
Arg of perigee:   241.2019 deg
Mean anomaly:     118.4612 deg
Mean motion:   14.78403184 rev/day
Decay rate:       2.27e-06 rev/day^2
Epoch rev:           29757
Checksum:              329

Satellite: SO-41
Catalog number: 26545
Epoch time:      04301.93947542
Element set:    0914
Inclination:      064.5580 deg
RA of node:       292.9037 deg
Eccentricity:    0.0024246
Arg of perigee:   346.5676 deg
Mean anomaly:     013.4795 deg
Mean motion:   14.79892230 rev/day
Decay rate:       8.22e-06 rev/day^2
Epoch rev:           22056
Checksum:              318

Satellite: MO-46
Catalog number: 26548
Epoch time:      04302.15548822
Element set:      13
Inclination:       64.5570 deg
RA of node:       277.7438 deg
Eccentricity:    0.0023958
Arg of perigee:   331.1518 deg
Mean anomaly:      28.8216 deg
Mean motion:   14.82455734 rev/day
Decay rate:      1.085e-05 rev/day^2
Epoch rev:           22088
Checksum:              310

Satellite: SO-42
Catalog number: 26549
Epoch time:      04302.49797218
Element set:     974
Inclination:       64.5546 deg
RA of node:       298.5543 deg
Eccentricity:    0.0024195
Arg of perigee:   358.4835 deg
Mean anomaly:       1.6192 deg
Mean motion:   14.78781955 rev/day
Decay rate:       5.31e-06 rev/day^2
Epoch rev:           22049
Checksum:              341

Satellite: NO-44
Catalog number: 26931
Epoch time:      04302.64123369
Element set:     885
Inclination:       67.0508 deg
RA of node:       104.1228 deg
Eccentricity:    0.0007558
Arg of perigee:   275.2671 deg
Mean anomaly:      84.7418 deg
Mean motion:   14.29327760 rev/day
Decay rate:      -8.12e-06 rev/day^2
Epoch rev:           16067
Checksum:              307

Satellite: AO-49
Catalog number: 27605
Epoch time:      04302.80217762
Element set:     572
Inclination:       64.5555 deg
RA of node:       118.7984 deg
Eccentricity:    0.0084394
Arg of perigee:   285.4557 deg
Mean anomaly:      73.7209 deg
Mean motion:   14.71952202 rev/day
Decay rate:       2.59e-06 rev/day^2
Epoch rev:            9979
Checksum:              342

Satellite: SO-50
Catalog number: 27607
Epoch time:      04302.80304318
Element set:     553
Inclination:       64.5566 deg
RA of node:       123.1477 deg
Eccentricity:    0.0085445
Arg of perigee:   284.4713 deg
Mean anomaly:      74.6879 deg
Mean motion:   14.70756584 rev/day
Decay rate:       3.98e-06 rev/day^2
Epoch rev:            9970
Checksum:              331

Satellite: AO-51
Catalog number: 28375
Epoch time:      04302.18798366
Element set:      95
Inclination:       98.2466 deg
RA of node:         7.5497 deg
Eccentricity:    0.0083591
Arg of perigee:   211.1492 deg
Mean anomaly:     148.4720 deg
Mean motion:   14.40399528 rev/day
Decay rate:       1.81e-06 rev/day^2
Epoch rev:            1721
Checksum:              317



Read previous mail | Read next mail


 22.06.2026 05:19:11lGo back Go up